Regional Weather Roundup
Issued by NWS Little Rock, AR

Home | Current Version | Previous Version | Text Only | Print | Product List | Glossary Off
Versions: 1 2 3 4 5 6 7 8 9 10 11 12 13 14 15 16 17 18 19 20 21 22 23 24 25 26 27 28 29 30 31 32 33 34 35 36 37 38 39 40 41 42 43 44 45 46 47 48 49 50

767
ASUS44 KLZK 240905
RWRLZK

WEATHER ROUNDUP FOR ARKANSAS
NATIONAL WEATHER SERVICE LITTLE ROCK AR
400 AM CDT TUE MAY 24 2016

NOTE: "FAIR" INDICATES FEW OR NO CLOUDS BELOW 12,000 FEET WITH NO
SIGNIFICANT WEATHER AND/OR OBSTRUCTIONS TO VISIBILITY.

ARZ001-003-010-029-241000-
NORTHWEST ARKANSAS

CITY           SKY/WX    TMP DP  RH WIND       PRES   REMARKS
FAYETTEVILLE   CLOUDY    62  62 100 CALM      29.92S
FORT SMITH     CLOUDY    68  64  87 E7        29.90F
HARRISON       CLOUDY    64  60  87 SE5       29.94F
BENTONVILLE    CLOUDY    64  59  82 S5        29.92F
ROGERS           N/A     63  62  97 SE8       29.93S
SILOAM SPGS    CLOUDY    64  55  72 SE7       29.92S
HIGHFILL       PTCLDY    63  63 100 S3        29.92S
$$

ARZ004-005-016-241000-
NORTH CENTRAL ARKANSAS

CITY           SKY/WX    TMP DP  RH WIND       PRES   REMARKS
BATESVILLE     PTCLDY    64  59  82 E5        29.97S
FLIPPIN        CLOUDY   N/A N/A N/A CALM      29.91F
MTN HOME       CLOUDY    62  60  93 E3        29.94S
$$

ARZ040-041-241000-
WEST CENTRAL ARKANSAS

CITY           SKY/WX    TMP DP  RH WIND       PRES   REMARKS
MENA           CLOUDY    75  68  78 S6        29.94S
MOUNT IDA      CLOUDY    68  64  87 CALM      29.92S
$$

ARZ009-017-025-026-028-241000-
NORTHEAST ARKANSAS

CITY           SKY/WX    TMP DP  RH WIND       PRES   REMARKS
CORNING          N/A     68  59  73 SE6       29.98S
JONESBORO      CLOUDY    66  57  72 CALM      29.99R
NEWPORT        MOCLDY    66  58  75 CALM      29.99R
WALNUT RIDGE   CLOUDY    66  57  72 E5        29.97S
BLYTHEVILLE    CLOUDY    69  56  62 S3        30.00R
$$

ARZ022-023-033-042-044-241000-
CENTRAL ARKANSAS

CITY           SKY/WX    TMP DP  RH WIND       PRES   REMARKS
LITTLE ROCK    CLEAR     65  60  84 CALM      29.96S
N LITTLE ROCK    N/A     67  60  79 CALM      29.94S
JACKSONVILLE   CLEAR     61  61  99 NE1       29.95F
SEARCY         MOCLDY    63  62  97 CALM      29.98S
HOT SPRINGS    CLOUDY    69  62  78 E5        29.95S
RUSSELLVILLE   CLOUDY    67  63  87 CALM      29.93S
CLINTON        MOCLDY    61  61 100 CALM      29.96F FOG
$$

ARZ036-241000-
EAST ARKANSAS

CITY           SKY/WX    TMP DP  RH WIND       PRES   REMARKS
WEST MEMPHIS   MOCLDY    65  56  72 S3        29.98S
$$

ARZ050-053-066-070-073-241000-
SOUTHWEST ARKANSAS

CITY           SKY/WX    TMP DP  RH WIND       PRES   REMARKS
ARKADELPHIA    FAIR      66  66 100 CALM      29.96R
CAMDEN         CLEAR     64  59  82 CALM      29.95R
TEXARKANA      CLOUDY    70  65  84 S5        29.94R
EL DORADO      CLOUDY    66  63  90 S3        29.96R
DE QUEEN       CLOUDY    71  66  84 SE6       29.92R
$$

ARZ056-057-069-241000-
SOUTHEAST ARKANSAS

CITY           SKY/WX    TMP DP  RH WIND       PRES   REMARKS
PINE BLUFF     CLEAR     64  60  87 SE3       29.97R
STUTTGART      CLEAR     68  57  68 SE5       29.98R
MONTICELLO     PTCLDY    63  58  83 CALM      29.97R

$$






USA.gov is the U.S. government's official web portal to all federal, state and local government web resources and services.